Satellite: FCAL
Catalog number: 29667
Epoch time:      08073.49255770
Element set:     824
Inclination:      051.6298 deg
RA of node:       103.2531 deg
Eccentricity:    0.0008508
Arg of perigee:   348.4409 deg
Mean anomaly:     011.6407 deg
Mean motion:   16.05146837 rev/day
Decay rate:     7.5655e-04 rev/day^2
Epoch rev:            7113
Checksum:              307

Satellite: FALCON
Catalog number: 30776
Epoch time:      08073.91628690
Element set:     267
Inclination:      035.4343 deg
RA of node:       011.2597 deg
Eccentricity:    0.0001820
Arg of perigee:   281.1665 deg
Mean anomaly:     078.8849 deg
Mean motion:   15.02910182 rev/day
Decay rate:       6.29e-06 rev/day^2
Epoch rev:            5580
Checksum:              301

Satellite: MAST
Catalog number: 31126
Epoch time:      08072.17090569
Element set:    0278
Inclination:      098.0481 deg
RA of node:       140.4408 deg
Eccentricity:    0.0093638
Arg of perigee:   272.5707 deg
Mean anomaly:     086.4788 deg
Mean motion:   14.53405254 rev/day
Decay rate:       1.35e-06 rev/day^2
Epoch rev:           04792
Checksum:              308

Satellite: CAPE1
Catalog number: 31130
Epoch time:      08072.71317140
Element set:    0260
Inclination:      098.0506 deg
RA of node:       140.1930 deg
Eccentricity:    0.0101769
Arg of perigee:   273.1192 deg
Mean anomaly:     085.8364 deg
Mean motion:   14.51939347 rev/day
Decay rate:       1.90e-06 rev/day^2
Epoch rev:           04772
Checksum:              272

/EX





More information about the Keps mailing list